User: anonymous   Login
Location: Unspecified
(0.0000°N, 0.0000°E)
Time: 13:18:49
(UTC+00:00)
Language:

Transit 2A - Orbit

View from above orbital plane
View from above orbital plane
View from above satellite
View from above satellite

Ground track
Ground track

The orbit data is extracted from the following two-line orbital elements,

1 00045U 60007A   21212.86382530 -.00000073  00000-0  86138-5 0  9997
2 00045  66.6954  21.9843 0253122  15.9850 344.9051 14.33728434124526
Epoch (UTC): 31 July 2021 20:43:54
Eccentricity: 0.0253122
inclination: 66.6954°
perigee height: 598 km
apogee height: 960 km
right ascension of ascending node: 21.9843°
argument of perigee: 15.9850°
revolutions per day: 14.33728434
mean anomaly at epoch: 344.9051°
orbit number at epoch: 12452

The dashed part of the orbit path shows where the satellite is in the earth's shadow,  

DLR